カタログに戻る

UNKNOWN PAYLOAD

運用中SSO
NORAD 58927·DEBRIS·🇨🇳 China
この衛星名は、まだ公式ソースで確認されていません。

打ち上げ Feb 3, 2024 から South China Sea Launch Area

Loading…

次のパス (今後24時間)

TLE

最新Source: Space-Track

元期: Sep 14, 2026, 11:11 UTC

1 58927U 24024L   26257.46654412  .00029920  00000-0  86710-3 0  9994
2 58927  97.2982 323.6679 0005054 205.8167 154.2826 15.35494528122042

AllMySatでUNKNOWN PAYLOADをリアルタイム追跡

Download on the App Store